Weather History for Clarksburg, WV

Change the Weather History Date:

Tuesday, November 26, 2013

  Actual Average Record
Temperature  
Mean Temperature 35 °F -  
Max Temperature 37 °F 50 °F 72 °F (1979)
Min Temperature 33 °F 28 °F 4 °F (1938)
Degree Days  
Heating Degree Days 30    
Moisture  
Dew Point 34 °F    
Average Humidity 93    
Maximum Humidity 100    
Minimum Humidity 85    
Precipitation  
Precipitation 1.14 in - - ()
Sea Level Pressure  
Sea Level Pressure 30.00 in    
Wind  
Wind Speed 2 mph (North)    
Max Wind Speed 10 mph    
Max Gust Speed -    
Visibility 5 miles    
Events Rain , Snow    
Averages and records for this station are not official NWS values.
T = Trace of Precipitation, MM = Missing Value Source: NWS Daily Summary

Daily Weather History Graph

Daily Weather History Graph

Search for Another Location

Airport:

Trip Planner

Search our weather history database for the weather conditions in past years. The results will help you decide how hot, cold, wet, or windy it might be!

Date:

Astronomy

Nov. 26, 2013 Rise Set
Actual Time 7:16 AM EST 4:59 PM EST
Civil Twilight 6:47 AM EST 5:29 PM EST
Nautical Twilight 6:14 AM EST 6:02 PM EST
Astronomical Twilight 5:42 AM EST 6:34 PM EST
Moon 12:21 AM EST (11/26) 1:03 PM EST (11/26)
Length of Visible Light 10h 41m
Length of Day
9h 42m
Last Quarter, 41% of the Moon is Illuminated
Nov 26
Last Quarter
Dec 2
New
Dec 9
First Quarter
Dec 17
Full
Dec 25
Last Quarter

Hourly Weather History & Observations

Time (EST) Temp. Windchill Dew Point Humidity Pressure Visibility Wind Dir Wind Speed Gust Speed Precip Events Conditions
12:53 AM 33.1 °F 30.0 °F 30.0 °F 89% 30.22 in 10.0 mi SSE 3.5 mph - 0.00 in   Overcast
1:53 AM 34.0 °F - 30.0 °F 85% 30.21 in 7.0 mi Calm Calm - 0.00 in Snow Light Snow
2:23 AM 33.8 °F - 30.2 °F 87% 30.19 in 10.0 mi Calm Calm - 0.00 in   Overcast
2:53 AM 34.0 °F - 30.9 °F 89% 30.20 in 10.0 mi Calm Calm - 0.00 in   Overcast
3:19 AM 33.8 °F - 30.2 °F 87% 30.18 in 10.0 mi Calm Calm - N/A   Overcast
3:53 AM 34.0 °F - 30.9 °F 89% 30.19 in 10.0 mi Calm Calm - N/A   Overcast
4:43 AM 33.8 °F - 30.2 °F 87% 30.16 in 4.0 mi Calm Calm - 0.00 in Snow Light Snow
4:53 AM 33.1 °F - 30.9 °F 92% 30.18 in 2.5 mi Calm Calm - 0.00 in Snow Light Snow
5:02 AM 33.8 °F - 30.2 °F 87% 30.17 in 3.0 mi Calm Calm - 0.00 in Rain Light Rain
5:46 AM 33.8 °F - 30.2 °F 87% 30.15 in 5.0 mi Calm Calm - 0.01 in Rain Light Rain
5:53 AM 33.1 °F - 30.9 °F 92% 30.17 in 7.0 mi Calm Calm - 0.01 in Rain Light Rain
6:53 AM 33.1 °F 30.0 °F 30.9 °F 92% 30.16 in 9.0 mi SE 3.5 mph - 0.00 in   Overcast
7:53 AM 34.0 °F - 32.0 °F 92% 30.14 in 4.0 mi Calm Calm - 0.01 in Rain Light Rain
8:44 AM 33.8 °F - 32.0 °F 93% 30.12 in 4.0 mi Calm Calm - 0.03 in Rain Light Rain
8:53 AM 34.0 °F - 33.1 °F 96% 30.13 in 5.0 mi Calm Calm - 0.03 in Rain Light Rain
9:12 AM 35.6 °F - 33.8 °F 93% 30.11 in 2.5 mi Calm Calm - 0.01 in Rain Light Rain
9:37 AM 35.6 °F - 33.8 °F 93% 30.11 in 2.5 mi Calm Calm - 0.02 in Rain Light Rain
9:53 AM 35.1 °F - 33.1 °F 92% 30.11 in 1.5 mi Calm Calm - 0.03 in Rain Light Rain
10:45 AM 35.6 °F - 35.6 °F 100% 30.07 in 1.5 mi Calm Calm - 0.04 in Rain Light Rain
10:53 AM 36.0 °F - 35.1 °F 97% 30.08 in 1.5 mi Calm Calm - 0.05 in Rain Rain
11:53 AM 37.0 °F - 36.0 °F 96% 30.03 in 1.5 mi Calm Calm - 0.04 in Rain Light Rain
12:00 PM 37.4 °F - 35.6 °F 93% 30.01 in 2.0 mi Calm Calm - 0.01 in Rain Rain
12:07 PM 37.4 °F - 35.6 °F 93% 30.01 in 1.0 mi Calm Calm - 0.02 in Rain Rain
12:53 PM 37.9 °F 35.5 °F 36.0 °F 93% 29.98 in 1.0 mi NNE 3.5 mph - 0.07 in Rain Light Rain
1:53 PM 37.0 °F 32.4 °F 36.0 °F 96% 29.95 in 1.0 mi North 5.8 mph - 0.05 in Rain Light Rain
2:00 PM 37.4 °F 32.1 °F 35.6 °F 93% 29.94 in 5.0 mi North 6.9 mph - 0.01 in Rain Light Rain
2:53 PM 37.0 °F 29.8 °F 36.0 °F 96% 29.93 in 9.0 mi North 10.4 mph - 0.09 in Rain Light Rain
3:03 PM 37.4 °F 30.8 °F 35.6 °F 93% 29.91 in 2.5 mi North 9.2 mph - 0.01 in Rain Rain
3:25 PM 37.4 °F 31.4 °F 35.6 °F 93% 29.91 in 2.5 mi NNE 8.1 mph - 0.05 in Rain Rain
3:53 PM 37.0 °F 31.0 °F 35.1 °F 93% 29.90 in 2.5 mi NNE 8.1 mph - 0.09 in Rain Rain
4:00 PM 37.4 °F 30.3 °F 35.6 °F 93% 29.89 in 6.0 mi NNE 10.4 mph - 0.01 in Rain Rain
4:53 PM 37.0 °F 32.4 °F 35.1 °F 93% 29.88 in 6.0 mi NNE 5.8 mph - 0.13 in Rain Rain
5:53 PM 36.0 °F 32.1 °F 35.1 °F 97% 29.83 in 4.0 mi NNE 4.6 mph - 0.16 in Rain Rain
6:53 PM 36.0 °F 31.1 °F 35.1 °F 97% 29.79 in 5.0 mi North 5.8 mph - 0.13 in Rain Rain
7:49 PM 35.6 °F 29.9 °F 35.6 °F 100% 29.74 in 6.0 mi North 6.9 mph - 0.08 in Rain Rain
7:53 PM 36.0 °F 29.6 °F 35.1 °F 97% 29.75 in 6.0 mi North 8.1 mph - 0.09 in Rain Rain
8:53 PM 37.0 °F 33.3 °F 35.1 °F 93% 29.73 in 5.0 mi NW 4.6 mph - 0.11 in Rain Light Rain
9:53 PM 37.0 °F 34.5 °F 35.1 °F 93% 29.70 in 6.0 mi NW 3.5 mph - 0.02 in Rain Light Rain
10:53 PM 37.0 °F 30.4 °F 35.1 °F 93% 29.72 in 6.0 mi WNW 9.2 mph - 0.01 in Rain Light Rain
11:08 PM 35.6 °F 30.7 °F 33.8 °F 93% 29.71 in 4.0 mi NW 5.8 mph - 0.00 in Rain Light Rain
11:53 PM 35.1 °F 27.4 °F 33.1 °F 92% 29.75 in 5.0 mi WNW 10.4 mph - 0.02 in Rain Light Rain